[[{"header":{"parameterUnit":"m.s-1","parameterCategory":1,"la1":30.2991,"la2":30.254,"lo1":-89.0895,"lo2":-89.0444,"dy":0.0017,"dx":0.0017,"nx":28,"ny":28,"refTime":"2023-08-17T09:00:00:Z","depth":0,"parameterNumber":2,"parameterNumberName":"U-component_of_WINDS"},"data":[0,0,0,0,0,0,0,0,0,0,0,0,0,0,0,0,0,0,0,0,0,0,0,0,0,0,0,0,0,0,0,0,0,0,0,0,0,0,0,0,0,0,0,0,0,0,0,0,0,0,0,0,0,0,0,0,0,0,-1.5488,-1.5488,0,-1.5493,-1.5493,-1.5493,-1.5429,-1.5428,-1.5426,-1.5424,-1.5432,-1.5434,-1.5435,0,0,0,0,0,0,0,0,0,0,0,0,0,-1.5427,-1.5429,-1.5488,-1.5488,-1.5488,-1.5493,-1.5493,-1.5493,-1.543,-1.5427,-1.5425,-1.5423,-1.5431,-1.5433,-1.5436,0,0,0,0,0,0,0,0,0,0,0,0,0,-1.5445,-1.5429,-1.5488,-1.5457,-1.5455,-1.5493,-1.5493,-1.5493,-1.543,-1.5427,-1.5425,-1.5422,-1.5431,-1.5433,-1.5436,-1.5505,0,0,-1.5444,-1.5445,0,0,0,0,0,0,0,0,-1.5444,-1.5447,-1.5462,-1.5459,-1.5456,-1.5458,-1.5474,-1.5497,-1.5431,-1.5439,-1.5424,-1.5421,-1.5443,-1.5444,-1.5451,-1.5505,-1.5506,-1.5445,-1.5446,-1.5447,-1.5448,0,0,0,0,0,0,0,-1.5443,-1.5447,-1.549,-1.5462,-1.5459,-1.5444,-1.5443,-1.5478,-1.5456,-1.5438,-1.5434,-1.5435,-1.5441,-1.5449,-1.5451,-1.5506,-1.5444,-1.5447,-1.5449,-1.545,-1.5615,-1.5618,0,0,0,0,0,0,-1.5446,-1.5446,-1.549,-1.549,-1.5444,-1.5447,-1.5447,-1.546,-1.5455,-1.5452,-1.5437,-1.5432,-1.5445,-1.5448,-1.5451,-1.553,-1.5447,-1.545,-1.5452,-1.5613,-1.5616,-1.5619,0,0,0,0,0,0,-1.5445,-1.545,-1.549,-1.5467,-1.5471,-1.5451,-1.5466,-1.5461,-1.5469,-1.5454,-1.545,-1.5449,-1.5443,-1.5447,-1.5491,-1.5529,-1.5451,-1.5454,-1.5609,-1.5614,-1.5617,-1.569,0,0,0,0,0,0,-1.5443,-1.545,-1.5476,-1.5468,-1.5472,-1.553,-1.5469,-1.5463,-1.5473,-1.5467,-1.5464,-1.5461,-1.5441,-1.5488,-1.5494,-1.5532,-1.5456,-1.5606,-1.5611,-1.5616,-1.5684,-1.5696,-1.5706,0,0,0,0,0,-1.5441,-1.5497,-1.5477,-1.5483,-1.5504,-1.5532,-1.5535,-1.551,-1.5477,-1.5502,-1.5493,-1.5461,-1.5524,-1.5493,-1.5499,-1.5538,-1.5603,-1.561,-1.5616,-1.5679,-1.5693,-1.5706,0,0,0,0,0,0,-1.5511,-1.5495,-1.5473,-1.5528,-1.5532,-1.5521,-1.5553,-1.5526,-1.554,-1.5533,-1.5503,-1.5503,-1.5552,-1.555,-1.5515,-1.5604,-1.5558,-1.5566,-1.5604,-1.5617,-1.5628,-1.5628,-1.5458,0,0,0,0,0,-1.5532,-1.5556,-1.5542,-1.5591,-1.5594,-1.5573,-1.5585,-1.5565,-1.5568,-1.557,-1.5563,-1.5568,-1.5589,-1.5603,-1.5622,-1.5683,-1.5681,-1.5713,-1.5725,-1.5734,-1.5741,-1.5772,-1.5786,-1.5639,-1.5639,-1.5639,0,0,-1.5578,-1.5572,-1.5589,-1.5605,-1.5606,-1.5631,-1.5575,-1.5605,-1.5623,-1.5575,-1.5615,-1.5611,-1.5614,-1.5667,-1.5691,-1.5667,-1.5781,-1.5742,-1.5749,-1.5751,-1.578,-1.5794,-1.5806,-1.5644,-1.5643,-1.5642,0,0,-1.5673,-1.5671,-1.5711,-1.5713,-1.5714,-1.5699,-1.5709,-1.5703,-1.5697,-1.5738,-1.5701,-1.5723,-1.576,-1.5763,-1.577,-1.5865,-1.5836,-1.5872,-1.593,-1.5961,-1.5972,-1.5982,-1.6015,-1.6027,-1.5879,-1.5879,-1.588,0,-1.5729,-1.5765,-1.5736,-1.5767,-1.5775,-1.5731,-1.5772,-1.5775,-1.5782,-1.5789,-1.5762,-1.5806,-1.5806,-1.5858,-1.5881,-1.5888,-1.5898,-1.5872,-1.5973,-1.5983,-1.5991,-1.6022,-1.6035,-1.5884,-1.5883,-1.5883,-1.5882,0,-1.5833,-1.5859,-1.5892,-1.5898,-1.591,-1.5946,-1.5923,-1.5939,-1.5918,-1.5907,-1.5948,-1.5945,-1.5962,-1.5973,-1.5954,-1.6023,-1.6008,-1.5978,-1.5931,-1.601,-1.6039,-1.605,-1.589,-1.5888,-1.5887,-1.5886,0,0,-1.5972,-1.5961,-1.5974,-1.5976,-1.5973,-1.5993,-1.6027,-1.6041,-1.6055,-1.6062,-1.6089,-1.6121,-1.6092,-1.61,-1.608,-1.6108,-1.6182,-1.6074,-1.6073,-1.6093,-1.6256,-1.6278,-1.6292,-1.6163,-1.6165,-1.6167,-1.6256,0,-1.6063,-1.6119,-1.6094,-1.6154,-1.6176,-1.6134,-1.6164,-1.6166,-1.6156,-1.6175,-1.6165,-1.6187,-1.6148,-1.6152,-1.6177,-1.6167,-1.6214,-1.6161,-1.6188,-1.619,-1.6187,-1.6308,-1.6331,-1.6415,-1.6267,-1.6269,-1.627,0,-1.6177,-1.6186,-1.6248,-1.6239,-1.6248,-1.6275,-1.6286,-1.6304,-1.6306,-1.6297,-1.6305,-1.6279,-1.6312,-1.6266,-1.6311,-1.6275,-1.6285,-1.6282,-1.6285,-1.6286,-1.6234,-1.6311,-1.6441,-1.6453,-1.6288,-1.6286,-1.6285,0,-1.627,-1.6299,-1.6338,-1.6342,-1.6334,-1.6353,-1.6351,-1.635,-1.636,-1.637,-1.6376,-1.6391,-1.6398,-1.641,-1.6389,-1.6358,-1.6437,-1.6389,-1.643,-1.6431,-1.6448,-1.6447,-1.6581,-1.6457,-1.6457,-1.6456,-1.6456,0,-1.6374,-1.6413,-1.638,-1.6405,-1.6447,-1.6418,-1.646,-1.6454,-1.6453,-1.6475,-1.6441,-1.6463,-1.6434,-1.6454,-1.6438,-1.6477,-1.6482,-1.6475,-1.647,-1.6478,-1.6478,-1.6483,-1.6476,-1.646,-1.6459,-1.6458,-1.6458,0,-1.6485,-1.6465,-1.6505,-1.6494,-1.6492,-1.6523,-1.6514,-1.6536,-1.6524,-1.6553,-1.6558,-1.6539,-1.6561,-1.6541,-1.6562,-1.6551,-1.6603,-1.659,-1.6602,-1.6598,-1.6639,-1.6635,-1.678,-1.6797,-1.6663,-1.6664,-1.6666,0,-1.6552,-1.658,-1.6572,-1.6583,-1.6583,-1.6603,-1.6613,-1.6586,-1.6597,-1.66,-1.6622,-1.664,-1.6653,-1.6689,-1.6677,-1.6693,-1.6679,-1.6729,-1.6682,-1.6687,-1.6679,-1.6676,-1.6679,-1.6738,-1.674,-1.6741,-1.6742,0,-1.6672,-1.666,-1.6675,-1.6686,-1.6698,-1.6706,-1.6711,-1.6723,-1.6695,-1.671,-1.673,-1.674,-1.676,-1.6778,-1.679,-1.6788,-1.6761,-1.6758,-1.6767,-1.6775,-1.678,-1.6776,-1.6627,-1.6754,-1.6753,-1.6752,-1.6751,-1.6751,-1.6762,-1.6784,-1.6781,-1.6799,-1.6799,-1.6805,-1.6824,-1.6814,-1.683,-1.6844,-1.6827,-1.6852,-1.6852,-1.6865,-1.6866,-1.6886,-1.6865,-1.688,-1.6883,-1.6887,-1.6892,-1.6778,-1.6888,-1.6888,-1.6887,-1.6887,-1.6887,0,-1.6878,-1.6874,-1.689,-1.6898,-1.6911,-1.6883,-1.6888,-1.6901,-1.6923,-1.6925,-1.6937,-1.6961,-1.6978,-1.6968,-1.6982,-1.7,-1.6988,-1.7005,-1.7002,-1.7002,-1.6911,-1.69,-1.7014,-1.7014,-1.7014,-1.7014,-1.7014,-1.7014,-1.6941,-1.6977,-1.6965,-1.7002,-1.6998,-1.7021,-1.7025,-1.703,-1.7031,-1.7058,-1.7072,-1.7064,-1.7061,-1.7076,-1.709,-1.7087,-1.7093,-1.7115,-1.7107,-1.7021,-1.7009,-1.6997,-1.6986,-1.7117,-1.7117,-1.7196,-1.7197,-1.7197]},{"header":{"parameterUnit":"m.s-1","parameterCategory":1,"la1":30.2991,"la2":30.254,"lo1":-89.0895,"lo2":-89.0444,"dy":0.0017,"dx":0.0017,"nx":28,"ny":28,"refTime":"2023-08-17T09:00:00:Z","depth":0,"parameterNumber":3,"parameterNumberName":"V-component_of_WINDS"},"data":[0,0,0,0,0,0,0,0,0,0,0,0,0,0,0,0,0,0,0,0,0,0,0,0,0,0,0,0,0,0,0,0,0,0,0,0,0,0,0,0,0,0,0,0,0,0,0,0,0,0,0,0,0,0,0,0,0,0,0.4631,0.463,0,0.4584,0.4583,0.4583,0.4576,0.4576,0.4577,0.4577,0.4528,0.4527,0.4525,0,0,0,0,0,0,0,0,0,0,0,0,0,0.4714,0.4712,0.4631,0.463,0.463,0.4584,0.4583,0.4583,0.4576,0.4576,0.4577,0.4578,0.4529,0.4527,0.4525,0,0,0,0,0,0,0,0,0,0,0,0,0,0.4673,0.4712,0.4631,0.4621,0.4619,0.4584,0.4583,0.4583,0.4576,0.4577,0.4577,0.4578,0.4529,0.4527,0.4524,0.4496,0,0,0.4517,0.4515,0,0,0,0,0,0,0,0,0.4676,0.467,0.4623,0.4621,0.462,0.4587,0.4595,0.4553,0.4576,0.4592,0.4577,0.4578,0.4547,0.4543,0.4533,0.4493,0.4491,0.4516,0.4515,0.4514,0.4513,0,0,0,0,0,0,0,0.4678,0.4672,0.4612,0.4622,0.462,0.4618,0.4613,0.4587,0.4567,0.4591,0.459,0.4585,0.4546,0.4535,0.4532,0.4491,0.4516,0.4514,0.4513,0.4512,0.4425,0.4425,0,0,0,0,0,0,0.4683,0.4675,0.4614,0.4611,0.465,0.4616,0.4611,0.4597,0.4567,0.4563,0.4584,0.4585,0.4539,0.4535,0.453,0.4494,0.4514,0.4511,0.451,0.4426,0.4425,0.4424,0,0,0,0,0,0,0.4685,0.4678,0.4616,0.4643,0.4634,0.4614,0.4598,0.4595,0.4584,0.4562,0.4558,0.4577,0.454,0.4533,0.4504,0.4492,0.451,0.4508,0.4427,0.4426,0.4425,0.4423,0,0,0,0,0,0,0.4687,0.4678,0.4667,0.4642,0.4633,0.4591,0.4598,0.4594,0.458,0.458,0.4554,0.455,0.454,0.4508,0.4502,0.4489,0.4506,0.4428,0.4426,0.4425,0.4424,0.4422,0.442,0,0,0,0,0,0.469,0.4668,0.4667,0.466,0.4619,0.459,0.4585,0.4574,0.4579,0.4568,0.4554,0.4551,0.4495,0.4505,0.4498,0.4484,0.4429,0.4427,0.4425,0.4425,0.4422,0.442,0,0,0,0,0,0,0.4692,0.4665,0.4663,0.4632,0.4614,0.4589,0.4575,0.4571,0.4551,0.4551,0.4538,0.4532,0.4504,0.4491,0.4503,0.4455,0.4462,0.4459,0.4464,0.4462,0.446,0.4463,0.4504,0,0,0,0,0,0.4689,0.4669,0.4646,0.4621,0.4612,0.4595,0.4582,0.4575,0.4555,0.4547,0.4531,0.4511,0.4489,0.4475,0.4453,0.4422,0.4416,0.4409,0.4408,0.4406,0.4403,0.4386,0.4383,0.4419,0.4419,0.4419,0,0,0.4682,0.4665,0.4653,0.4621,0.4606,0.4584,0.4588,0.4566,0.455,0.4543,0.4515,0.4502,0.448,0.445,0.4436,0.4438,0.4392,0.4404,0.4403,0.4401,0.4384,0.438,0.4377,0.4418,0.4418,0.4418,0,0,0.4659,0.4644,0.4622,0.4607,0.4584,0.4573,0.4568,0.4544,0.4535,0.4507,0.4502,0.4482,0.4445,0.4429,0.4416,0.4387,0.4384,0.4381,0.437,0.4354,0.4351,0.4348,0.4338,0.4334,0.4378,0.4378,0.4378,0,0.4653,0.4621,0.4611,0.4588,0.4574,0.4569,0.4546,0.4532,0.4503,0.4493,0.4497,0.445,0.4434,0.44,0.4393,0.4383,0.4376,0.4383,0.4352,0.4349,0.4347,0.4337,0.4333,0.4378,0.4378,0.4378,0.4378,0,0.4616,0.4594,0.4578,0.4551,0.4536,0.4513,0.4499,0.4484,0.4479,0.4467,0.4438,0.442,0.4394,0.4386,0.438,0.4351,0.4354,0.4355,0.4362,0.4343,0.4334,0.433,0.4377,0.4377,0.4377,0.4378,0,0,0.4591,0.4559,0.4554,0.4541,0.4516,0.4499,0.4476,0.4452,0.444,0.442,0.4401,0.4369,0.437,0.4356,0.4348,0.4334,0.4312,0.4337,0.4336,0.4333,0.4279,0.4278,0.4274,0.431,0.431,0.4309,0.4281,0,0.4565,0.4525,0.4515,0.448,0.446,0.4454,0.4435,0.4417,0.4406,0.4386,0.4374,0.4352,0.4355,0.4346,0.4332,0.4318,0.4301,0.432,0.4292,0.4291,0.4297,0.4269,0.4267,0.4242,0.4277,0.4276,0.4276,0,0.4529,0.4509,0.4473,0.445,0.4441,0.4424,0.4401,0.4383,0.4363,0.4356,0.4339,0.4333,0.4309,0.4318,0.4285,0.4298,0.4286,0.4277,0.4276,0.4272,0.4282,0.4264,0.4233,0.4229,0.427,0.427,0.4271,0,0.4515,0.4479,0.4453,0.4442,0.4416,0.4404,0.4392,0.4372,0.4358,0.4338,0.4329,0.4307,0.4294,0.4276,0.4264,0.4272,0.4232,0.4239,0.4225,0.4226,0.4217,0.4217,0.4183,0.421,0.421,0.421,0.421,0,0.4486,0.4464,0.4446,0.443,0.4405,0.4394,0.4369,0.4357,0.434,0.4321,0.4315,0.4298,0.4283,0.4263,0.4254,0.4228,0.4222,0.4215,0.4213,0.4216,0.4217,0.4207,0.4209,0.4209,0.4209,0.4209,0.4209,0,0.4466,0.4453,0.4424,0.4401,0.4395,0.4378,0.4358,0.4342,0.4331,0.4308,0.4301,0.4284,0.4261,0.4247,0.4218,0.4211,0.4182,0.4181,0.4189,0.4188,0.4174,0.4176,0.4133,0.4126,0.4157,0.4157,0.4157,0,0.4448,0.4431,0.4407,0.4394,0.4382,0.4362,0.4348,0.4336,0.4322,0.4298,0.4285,0.4261,0.4242,0.4204,0.4189,0.4166,0.4164,0.4151,0.4161,0.4164,0.4164,0.4165,0.4163,0.4149,0.4149,0.4148,0.4148,0,0.4418,0.4413,0.4393,0.4371,0.4355,0.4337,0.4319,0.4309,0.4294,0.4278,0.4255,0.424,0.421,0.4186,0.4163,0.415,0.4147,0.4145,0.4141,0.4143,0.4148,0.4145,0.4184,0.4146,0.4146,0.4146,0.4147,0.4147,0.4398,0.4383,0.4364,0.4342,0.4328,0.4311,0.4295,0.4283,0.4263,0.4238,0.4232,0.4207,0.4188,0.4155,0.4143,0.4123,0.4125,0.4118,0.4117,0.4115,0.4115,0.4152,0.4118,0.4118,0.4118,0.4119,0.4119,0,0.4368,0.4356,0.4336,0.4311,0.4294,0.4293,0.4273,0.4259,0.4237,0.422,0.4201,0.4174,0.4151,0.4134,0.4111,0.4098,0.4096,0.4093,0.4093,0.409,0.4114,0.412,0.4095,0.4095,0.4095,0.4095,0.4095,0.4095,0.435,0.4324,0.4317,0.4284,0.4271,0.4247,0.4236,0.4221,0.4207,0.4177,0.4158,0.4148,0.413,0.4106,0.4085,0.408,0.4072,0.4069,0.4064,0.4086,0.4089,0.4091,0.4097,0.4067,0.4067,0.4042,0.4042,0.4042]}]]